ASY541 KBTV-BGGH

Flight info

Callsign ASY541
Flight time N/A
Altitude 39000
Route PUXER DCT ANCER DCT ARAME J561 YWK J583 YDP/M076F390 N875A URTAK DCT GH
Aircraft F35/M-SDILOTUVY/C

Departure

Time 2026-05-07 07:47
Airport Patrick Leahy Burlington International Airport (KBTV)

Arrival

Time N/A
Airport Nuuk International Airport (BGGH)
Time Latitude Longitude Altitude Speed Heading
2026-05-07 07:40 44.47289 -73.14744 321 ft 0 kts 220°
2026-05-07 07:43 44.47286 -73.14748 321 ft 4 kts 220°
2026-05-07 07:43 44.47248 -73.14793 321 ft 4 kts 221°
2026-05-07 07:43 44.47254 -73.14824 321 ft 7 kts 311°
2026-05-07 07:44 44.47313 -73.14918 322 ft 19 kts 310°
2026-05-07 07:44 44.47397 -73.15053 322 ft 18 kts 311°
2026-05-07 07:44 44.47478 -73.15181 321 ft 17 kts 310°
2026-05-07 07:44 44.47553 -73.15302 323 ft 18 kts 310°
2026-05-07 07:45 44.47640 -73.15451 321 ft 20 kts 308°
2026-05-07 07:45 44.47727 -73.15605 321 ft 22 kts 309°
2026-05-07 07:45 44.47826 -73.15774 321 ft 22 kts 310°
2026-05-07 07:45 44.47921 -73.15937 320 ft 21 kts 308°
2026-05-07 07:46 44.47982 -73.16043 320 ft 21 kts 309°
2026-05-07 07:46 44.48061 -73.16272 320 ft 19 kts 276°
2026-05-07 07:46 44.48073 -73.16394 320 ft 19 kts 278°
2026-05-07 07:46 44.48064 -73.16559 319 ft 12 kts 216°
2026-05-07 07:47 44.48032 -73.16531 319 ft 9 kts 131°
2026-05-07 07:47 44.47537 -73.15733 401 ft 200 kts 132°
2026-05-07 07:47 44.46347 -73.13831 1529 ft 326 kts 132°
2026-05-07 07:47 44.44573 -73.11029 3544 ft 440 kts 133°
2026-05-07 07:48 44.42334 -73.07515 6259 ft 523 kts 131°
2026-05-07 07:48 44.40237 -73.02994 9435 ft 583 kts 116°
2026-05-07 07:48 44.39046 -72.97450 12731 ft 602 kts 100°
2026-05-07 07:48 44.38977 -72.91577 15960 ft 608 kts 84°
2026-05-07 07:49 44.40035 -72.85856 19153 ft 609 kts 67°
2026-05-07 07:49 44.42129 -72.80719 22225 ft 607 kts 50°
2026-05-07 07:49 44.45034 -72.76607 25095 ft 598 kts 33°
2026-05-07 07:49 44.48601 -72.73535 27204 ft 609 kts 19°
2026-05-07 07:50 44.52593 -72.71707 28194 ft 599 kts
2026-05-07 07:50 44.56719 -72.71210 29119 ft 589 kts 353°
2026-05-07 07:50 44.60799 -72.71169 29963 ft 585 kts 351°
2026-05-07 07:50 44.64863 -72.71256 30682 ft 583 kts 351°
2026-05-07 07:51 44.68920 -72.71380 31440 ft 580 kts 351°
2026-05-07 07:51 44.72951 -72.71504 32224 ft 578 kts 351°
2026-05-07 07:51 44.76970 -72.71612 33022 ft 576 kts 351°
2026-05-07 07:51 44.80922 -72.71697 33839 ft 574 kts 351°
2026-05-07 07:52 44.84924 -72.71759 34546 ft 573 kts 351°
2026-05-07 07:52 44.88918 -72.71798 35270 ft 572 kts 352°
2026-05-07 07:52 44.92903 -72.71812 36008 ft 571 kts 352°
2026-05-07 07:52 44.96880 -72.71799 36771 ft 569 kts 352°
2026-05-07 07:53 45.00792 -72.71760 37547 ft 568 kts 353°
2026-05-07 07:53 45.04745 -72.71695 38306 ft 569 kts 353°
2026-05-07 07:53 45.08734 -72.71607 38639 ft 574 kts 354°
2026-05-07 07:53 45.12746 -72.71491 38760 ft 578 kts 354°
2026-05-07 07:54 45.16792 -72.71345 38806 ft 581 kts 355°
2026-05-07 07:54 45.24830 -72.70959 38845 ft 583 kts 355°
2026-05-07 07:55 45.32951 -72.70443 38849 ft 584 kts 356°
2026-05-07 07:55 45.41074 -72.69801 38845 ft 585 kts 357°
2026-05-07 07:56 45.49232 -72.69029 38841 ft 586 kts 358°
2026-05-07 07:56 45.53244 -72.68207 38880 ft 596 kts 11°
2026-05-07 07:56 45.57179 -72.66182 38904 ft 606 kts 20°
2026-05-07 07:57 45.64697 -72.60553 38851 ft 613 kts 29°
2026-05-07 07:57 45.71595 -72.53246 38844 ft 617 kts 31°
2026-05-07 07:58 45.78600 -72.46147 38832 ft 617 kts 33°
2026-05-07 07:58 45.85537 -72.39052 38818 ft 616 kts 33°
2026-05-07 07:59 45.92496 -72.31873 38806 ft 615 kts 32°
2026-05-07 07:59 45.99451 -72.24661 38805 ft 615 kts 32°
2026-05-07 08:00 46.06400 -72.17445 38801 ft 615 kts 32°
2026-05-07 08:00 46.13300 -72.10264 38801 ft 615 kts 33°
2026-05-07 08:01 46.20235 -72.03022 38795 ft 615 kts 33°
2026-05-07 08:01 46.27158 -71.95767 38802 ft 615 kts 33°
2026-05-07 08:02 46.34040 -71.88532 38802 ft 614 kts 33°
2026-05-07 08:02 46.40963 -71.81233 38801 ft 614 kts 33°
2026-05-07 08:03 46.47878 -71.73917 38801 ft 614 kts 33°
2026-05-07 08:03 46.54732 -71.66643 38801 ft 613 kts 33°
2026-05-07 08:04 46.61615 -71.59314 38799 ft 613 kts 33°
2026-05-07 08:04 46.68498 -71.51963 38803 ft 613 kts 34°
2026-05-07 08:05 46.75366 -71.44603 38803 ft 613 kts 34°
2026-05-07 08:05 46.82233 -71.37221 38804 ft 612 kts 34°
2026-05-07 08:06 46.89097 -71.29817 38800 ft 612 kts 34°
2026-05-07 08:06 46.95956 -71.22395 38801 ft 612 kts 34°
2026-05-07 08:07 47.02758 -71.15011 38796 ft 612 kts 34°
2026-05-07 08:07 47.09604 -71.07554 38795 ft 612 kts 34°
2026-05-07 08:08 47.16443 -71.00082 38785 ft 612 kts 35°
2026-05-07 08:08 47.23276 -70.92590 38788 ft 612 kts 35°
2026-05-07 08:09 47.29089 -70.86197 38781 ft 612 kts 35°
2026-05-07 08:09 47.35867 -70.78721 38774 ft 612 kts 35°
2026-05-07 08:10 47.42682 -70.71179 38773 ft 612 kts 35°
2026-05-07 08:10 47.49499 -70.63611 38772 ft 612 kts 35°
2026-05-07 08:11 47.56261 -70.56077 38767 ft 612 kts 35°
2026-05-07 08:11 47.63059 -70.48480 38758 ft 612 kts 36°
2026-05-07 08:12 47.69851 -70.40862 38757 ft 612 kts 36°
2026-05-07 08:12 47.76627 -70.33238 38756 ft 611 kts 36°
2026-05-07 08:13 47.83404 -70.25586 38752 ft 611 kts 36°
2026-05-07 08:13 47.90176 -70.17915 38754 ft 611 kts 36°
2026-05-07 08:14 47.96947 -70.10218 38753 ft 611 kts 36°
2026-05-07 08:14 48.03709 -70.02506 38754 ft 611 kts 36°
2026-05-07 08:15 48.10464 -69.94777 38747 ft 610 kts 36°
2026-05-07 08:15 48.17164 -69.87084 38744 ft 610 kts 36°
2026-05-07 08:16 48.23906 -69.79316 38744 ft 610 kts 36°
2026-05-07 08:16 48.30637 -69.71534 38748 ft 610 kts 36°
2026-05-07 08:17 48.37309 -69.63794 38747 ft 610 kts 37°
2026-05-07 08:17 48.44025 -69.55977 38742 ft 609 kts 37°
2026-05-07 08:18 48.50730 -69.48146 38747 ft 609 kts 37°
2026-05-07 08:18 48.57716 -69.40947 38751 ft 607 kts 28°
2026-05-07 08:19 48.65426 -69.35859 38768 ft 604 kts 20°
2026-05-07 08:19 48.73076 -69.30691 38765 ft 605 kts 20°
2026-05-07 08:20 48.80784 -69.25541 38751 ft 605 kts 21°
2026-05-07 08:20 48.88499 -69.20394 38747 ft 605 kts 22°
2026-05-07 08:21 48.96207 -69.15224 38749 ft 605 kts 22°
2026-05-07 08:21 49.03916 -69.10020 38747 ft 605 kts 22°
2026-05-07 08:22 49.11621 -69.04799 38751 ft 605 kts 22°
2026-05-07 08:22 49.19273 -68.99601 38750 ft 605 kts 22°
2026-05-07 08:23 49.26980 -68.94350 38748 ft 605 kts 22°
2026-05-07 08:23 49.34687 -68.89079 38751 ft 605 kts 22°
2026-05-07 08:24 49.42375 -68.83803 38743 ft 606 kts 22°
2026-05-07 08:24 49.50078 -68.78498 38752 ft 606 kts 22°
2026-05-07 08:25 49.57726 -68.73213 38754 ft 606 kts 22°
2026-05-07 08:25 49.65401 -68.67892 38750 ft 606 kts 22°
2026-05-07 08:26 49.76964 -68.59839 38749 ft 606 kts 22°
2026-05-07 08:26 49.84621 -68.54483 38753 ft 606 kts 22°
2026-05-07 08:27 49.92324 -68.49076 38748 ft 606 kts 23°
2026-05-07 08:27 50.00027 -68.43650 38750 ft 607 kts 23°
2026-05-07 08:28 50.07687 -68.38235 38752 ft 607 kts 23°
2026-05-07 08:28 50.15388 -68.32772 38754 ft 607 kts 23°
2026-05-07 08:29 50.23048 -68.27319 38747 ft 607 kts 23°
2026-05-07 08:29 50.30739 -68.21824 38754 ft 608 kts 23°
2026-05-07 08:30 50.38446 -68.16298 38753 ft 608 kts 23°
2026-05-07 08:30 50.46146 -68.10757 38757 ft 609 kts 23°
2026-05-07 08:31 50.53794 -68.05234 38760 ft 609 kts 23°
2026-05-07 08:31 50.61506 -67.99644 38763 ft 609 kts 23°
2026-05-07 08:32 50.67915 -67.94985 38763 ft 609 kts 24°
2026-05-07 08:32 50.75623 -67.89361 38762 ft 609 kts 24°
2026-05-07 08:33 50.84586 -67.82795 38769 ft 610 kts 24°
2026-05-07 08:33 50.90981 -67.78094 38771 ft 610 kts 24°
2026-05-07 08:34 50.98684 -67.72412 38772 ft 610 kts 24°
2026-05-07 08:34 51.06401 -67.66699 38777 ft 611 kts 24°
2026-05-07 08:35 51.14118 -67.60964 38776 ft 611 kts 24°
2026-05-07 08:35 51.21812 -67.55225 38776 ft 611 kts 24°
2026-05-07 08:36 51.29489 -67.49478 38782 ft 611 kts 24°
2026-05-07 08:36 51.37431 -67.44671 38801 ft 607 kts 11°
2026-05-07 08:37 51.45712 -67.42010 38802 ft 608 kts 12°
2026-05-07 08:37 51.53910 -67.38965 38802 ft 608 kts 10°
2026-05-07 08:38 51.62169 -67.35908 38796 ft 608 kts 10°
2026-05-07 08:38 51.70423 -67.32874 38792 ft 608 kts 10°
2026-05-07 08:39 51.78685 -67.29844 38791 ft 608 kts 11°
2026-05-07 08:39 51.86936 -67.26801 38798 ft 608 kts 11°
2026-05-07 08:40 51.95187 -67.23739 38796 ft 608 kts 10°
2026-05-07 08:40 52.03392 -67.20683 38802 ft 608 kts 11°
2026-05-07 08:41 52.11658 -67.17595 38807 ft 608 kts 11°
2026-05-07 08:41 52.19906 -67.14502 38803 ft 608 kts 11°
2026-05-07 08:42 52.28155 -67.11396 38802 ft 608 kts 10°
2026-05-07 08:42 52.36403 -67.08278 38804 ft 608 kts 11°
2026-05-07 08:43 52.44647 -67.05151 38804 ft 608 kts 11°
2026-05-07 08:43 52.52835 -67.02032 38803 ft 607 kts 11°
2026-05-07 08:44 52.61075 -66.98882 38793 ft 607 kts 11°
2026-05-07 08:44 52.69312 -66.95720 38769 ft 607 kts 11°
2026-05-07 08:45 52.77534 -66.92553 38751 ft 607 kts 11°
2026-05-07 08:45 52.85699 -66.89395 38734 ft 606 kts 11°
2026-05-07 08:46 52.93938 -66.85992 38747 ft 607 kts 20°
2026-05-07 08:46 53.01286 -66.79064 38796 ft 611 kts 38°
2026-05-07 08:47 53.07782 -66.70085 38786 ft 612 kts 36°
2026-05-07 08:47 53.14523 -66.61424 38789 ft 612 kts 38°
2026-05-07 08:48 53.21255 -66.52714 38811 ft 612 kts 38°
2026-05-07 08:48 53.27967 -66.43955 38811 ft 611 kts 38°
2026-05-07 08:49 53.34659 -66.35160 38812 ft 611 kts 38°
2026-05-07 08:49 53.41302 -66.26397 38815 ft 611 kts 38°
2026-05-07 08:50 53.47977 -66.17566 38821 ft 611 kts 38°
2026-05-07 08:50 53.54652 -66.08701 38819 ft 610 kts 38°
2026-05-07 08:51 53.61308 -65.99820 38817 ft 610 kts 38°
2026-05-07 08:51 53.67952 -65.90917 38818 ft 610 kts 38°
2026-05-07 08:52 53.74551 -65.82039 38819 ft 610 kts 38°
2026-05-07 08:52 53.81179 -65.73086 38820 ft 609 kts 38°
2026-05-07 08:53 53.87799 -65.64105 38823 ft 609 kts 38°
2026-05-07 08:53 53.94414 -65.55094 38820 ft 609 kts 38°
2026-05-07 08:54 54.01010 -65.46071 38822 ft 608 kts 38°
2026-05-07 08:54 54.07595 -65.37026 38824 ft 608 kts 38°
2026-05-07 08:55 54.14138 -65.28000 38825 ft 608 kts 38°
2026-05-07 08:55 54.20700 -65.18910 38824 ft 607 kts 39°
2026-05-07 08:56 54.27248 -65.09800 38829 ft 607 kts 39°
2026-05-07 08:56 54.33793 -65.00657 38828 ft 606 kts 39°
2026-05-07 08:57 54.40321 -64.91498 38831 ft 606 kts 39°
2026-05-07 08:57 54.46848 -64.82302 38832 ft 606 kts 39°
2026-05-07 08:58 54.53363 -64.73083 38834 ft 606 kts 39°
2026-05-07 08:58 54.59821 -64.63906 38839 ft 605 kts 39°
2026-05-07 08:59 54.66304 -64.54655 38840 ft 605 kts 39°
2026-05-07 08:59 54.72788 -64.45361 38842 ft 605 kts 39°
2026-05-07 09:00 54.79276 -64.36023 38842 ft 605 kts 39°
2026-05-07 09:00 54.85738 -64.26682 38851 ft 604 kts 39°
2026-05-07 09:01 54.92147 -64.17377 38852 ft 604 kts 40°
2026-05-07 09:01 54.98586 -64.07989 38854 ft 604 kts 40°
2026-05-07 09:02 55.05024 -63.98560 38856 ft 603 kts 40°
2026-05-07 09:02 55.11447 -63.89113 38859 ft 603 kts 40°
2026-05-07 09:03 55.17863 -63.79636 38853 ft 603 kts 40°
2026-05-07 09:03 55.24222 -63.70201 38860 ft 603 kts 40°
2026-05-07 09:04 55.30615 -63.60674 38862 ft 602 kts 40°
2026-05-07 09:04 55.37003 -63.51114 38856 ft 603 kts 40°
2026-05-07 09:05 55.43382 -63.41525 38861 ft 602 kts 40°
2026-05-07 09:05 55.49742 -63.31921 38861 ft 603 kts 40°
2026-05-07 09:06 55.56110 -63.22264 38864 ft 602 kts 40°
2026-05-07 09:06 55.62427 -63.12640 38860 ft 603 kts 41°
2026-05-07 09:07 55.68775 -63.02928 38862 ft 602 kts 41°
2026-05-07 09:07 55.75120 -62.93176 38857 ft 603 kts 41°
2026-05-07 09:08 55.81415 -62.83457 38852 ft 603 kts 41°
2026-05-07 09:08 55.87767 -62.73607 38854 ft 600 kts 41°
2026-05-07 09:09 55.94009 -62.63884 38852 ft 599 kts 41°
2026-05-07 09:09 56.00288 -62.54059 38846 ft 600 kts 41°
2026-05-07 09:10 56.06567 -62.44190 38842 ft 600 kts 41°
2026-05-07 09:10 56.12829 -62.34303 38844 ft 600 kts 41°
2026-05-07 09:11 56.19086 -62.24381 38837 ft 601 kts 41°
2026-05-07 09:11 56.25347 -62.14406 38839 ft 601 kts 42°
2026-05-07 09:12 56.31600 -62.04397 38837 ft 601 kts 42°
2026-05-07 09:12 56.37812 -61.94410 38830 ft 602 kts 42°
2026-05-07 09:13 56.44060 -61.84319 38830 ft 602 kts 42°
2026-05-07 09:13 56.50299 -61.74199 38832 ft 602 kts 41°
2026-05-07 09:14 56.56407 -61.63816 38838 ft 602 kts 46°
2026-05-07 09:14 56.62467 -61.53140 38848 ft 605 kts 46°
2026-05-07 09:15 56.68463 -61.42465 38844 ft 603 kts 45°
2026-05-07 09:15 56.74437 -61.31749 38841 ft 603 kts 45°
2026-05-07 09:16 56.80364 -61.21086 38835 ft 603 kts 45°
2026-05-07 09:16 56.86336 -61.10311 38843 ft 603 kts 45°
2026-05-07 09:17 56.92308 -60.99486 38838 ft 604 kts 46°
2026-05-07 09:17 56.98258 -60.88639 38845 ft 604 kts 46°
2026-05-07 09:18 57.04201 -60.77753 38842 ft 604 kts 46°
2026-05-07 09:18 57.10148 -60.66811 38840 ft 604 kts 46°
2026-05-07 09:19 57.16083 -60.55838 38843 ft 604 kts 46°
2026-05-07 09:19 57.21977 -60.44888 38844 ft 605 kts 46°
2026-05-07 09:20 57.27900 -60.33829 38844 ft 605 kts 46°
2026-05-07 09:20 57.33809 -60.22745 38844 ft 606 kts 46°
2026-05-07 09:21 57.38723 -60.13486 38848 ft 606 kts 46°
2026-05-07 09:21 57.44627 -60.02310 38848 ft 606 kts 46°
2026-05-07 09:22 57.51524 -59.89186 38854 ft 607 kts 46°
2026-05-07 09:22 57.56423 -59.79817 38856 ft 607 kts 46°
2026-05-07 09:23 57.62312 -59.68504 38854 ft 607 kts 46°
2026-05-07 09:23 57.68187 -59.57161 38858 ft 608 kts 46°
2026-05-07 09:24 57.74026 -59.45832 38856 ft 608 kts 47°
2026-05-07 09:24 57.79898 -59.34384 38858 ft 608 kts 47°
2026-05-07 09:25 57.85746 -59.22923 38858 ft 608 kts 47°
2026-05-07 09:25 57.91595 -59.11403 38867 ft 608 kts 47°
2026-05-07 09:26 57.97435 -58.99844 38864 ft 608 kts 47°
2026-05-07 09:26 58.03224 -58.88328 38863 ft 608 kts 47°
2026-05-07 09:27 58.09051 -58.76676 38866 ft 608 kts 47°
2026-05-07 09:28 58.17760 -58.59151 38868 ft 608 kts 47°
2026-05-07 09:28 58.23512 -58.47500 38871 ft 608 kts 48°
2026-05-07 09:29 58.29284 -58.35752 38870 ft 608 kts 48°
2026-05-07 09:29 58.35042 -58.23970 38868 ft 608 kts 48°
2026-05-07 09:30 58.40808 -58.12111 38869 ft 608 kts 48°
2026-05-07 09:30 58.46848 -58.00838 38923 ft 607 kts 34°
2026-05-07 09:31 58.54142 -57.93001 38926 ft 607 kts 21°
2026-05-07 09:31 58.61856 -57.86384 38897 ft 607 kts 26°
2026-05-07 09:32 58.69510 -57.79529 38891 ft 607 kts 25°
2026-05-07 09:32 58.77161 -57.72591 38882 ft 606 kts 25°
2026-05-07 09:33 58.84737 -57.65666 38883 ft 606 kts 24°
2026-05-07 09:33 58.92359 -57.58682 38884 ft 605 kts 25°
2026-05-07 09:34 58.99966 -57.51691 38883 ft 605 kts 25°
2026-05-07 09:34 59.07568 -57.44670 38883 ft 604 kts 25°
2026-05-07 09:35 59.15151 -57.37625 38884 ft 604 kts 25°
2026-05-07 09:35 59.22729 -57.30550 38888 ft 603 kts 25°
2026-05-07 09:36 59.30306 -57.23443 38884 ft 603 kts 25°
2026-05-07 09:36 59.37824 -57.16356 38884 ft 603 kts 25°
2026-05-07 09:37 59.45383 -57.09195 38882 ft 603 kts 25°
2026-05-07 09:37 59.52933 -57.02007 38884 ft 603 kts 25°
2026-05-07 09:38 59.60487 -56.94779 38888 ft 603 kts 25°
2026-05-07 09:38 59.68038 -56.87516 38889 ft 603 kts 26°
2026-05-07 09:39 59.75588 -56.80219 38886 ft 603 kts 26°
2026-05-07 09:39 59.83127 -56.72896 38885 ft 603 kts 26°
2026-05-07 09:40 59.90620 -56.65580 38888 ft 602 kts 26°
2026-05-07 09:40 59.98144 -56.58196 38885 ft 602 kts 26°
2026-05-07 09:41 60.05662 -56.50782 38890 ft 602 kts 26°
2026-05-07 09:41 60.13176 -56.43331 38886 ft 602 kts 26°
2026-05-07 09:42 60.20673 -56.35861 38886 ft 602 kts 26°
2026-05-07 09:42 60.28178 -56.28344 38886 ft 601 kts 27°
2026-05-07 09:43 60.35617 -56.20855 38884 ft 601 kts 27°
2026-05-07 09:43 60.43107 -56.13275 38887 ft 601 kts 27°
2026-05-07 09:44 60.50593 -56.05660 38888 ft 601 kts 27°
2026-05-07 09:44 60.58080 -55.98005 38888 ft 601 kts 27°
2026-05-07 09:45 60.65552 -55.90324 38889 ft 601 kts 27°
2026-05-07 09:45 60.73009 -55.82619 38887 ft 601 kts 27°
2026-05-07 09:46 60.80430 -55.74911 38890 ft 601 kts 27°
2026-05-07 09:46 60.87876 -55.67136 38893 ft 600 kts 27°
2026-05-07 09:47 60.95314 -55.59329 38891 ft 600 kts 27°
2026-05-07 09:47 61.02745 -55.51488 38889 ft 600 kts 27°
2026-05-07 09:48 61.10166 -55.43616 38892 ft 600 kts 28°
2026-05-07 09:48 61.17585 -55.35703 38893 ft 600 kts 28°
2026-05-07 09:49 61.25010 -55.27743 38898 ft 599 kts 28°
2026-05-07 09:49 61.32368 -55.19811 38899 ft 599 kts 28°
2026-05-07 09:50 61.39767 -55.11794 38900 ft 599 kts 28°
2026-05-07 09:50 61.47162 -55.03736 38903 ft 598 kts 28°
2026-05-07 09:51 61.54547 -54.95647 38909 ft 598 kts 28°
2026-05-07 09:51 61.61917 -54.87529 38909 ft 597 kts 28°
2026-05-07 09:52 61.69218 -54.79446 38910 ft 596 kts 28°
2026-05-07 09:52 61.76572 -54.71259 38916 ft 596 kts 28°
2026-05-07 09:53 61.83897 -54.63059 38920 ft 595 kts 28°
2026-05-07 09:53 61.91220 -54.54817 38920 ft 595 kts 29°
2026-05-07 09:54 61.98513 -54.46564 38929 ft 596 kts 29°
2026-05-07 09:54 62.05827 -54.38243 38930 ft 597 kts 29°
2026-05-07 09:55 62.13152 -54.29863 38936 ft 598 kts 29°
2026-05-07 09:55 62.20480 -54.21432 38941 ft 598 kts 30°
2026-05-07 09:56 62.27760 -54.13008 38950 ft 598 kts 30°
2026-05-07 09:56 62.35121 -54.04446 38954 ft 598 kts 30°
2026-05-07 09:57 62.42398 -53.95934 38966 ft 598 kts 30°
2026-05-07 09:57 62.49713 -53.87327 38971 ft 599 kts 30°
2026-05-07 09:58 62.57052 -53.78645 38309 ft 605 kts 30°
2026-05-07 09:58 62.60753 -53.74249 37511 ft 606 kts 30°
2026-05-07 09:58 62.64458 -53.69834 36743 ft 607 kts 30°
2026-05-07 09:58 62.68164 -53.65407 36000 ft 608 kts 31°
2026-05-07 09:59 62.71843 -53.60867 35291 ft 607 kts 36°
2026-05-07 09:59 62.75344 -53.55735 34604 ft 607 kts 36°
2026-05-07 09:59 62.78928 -53.50837 33923 ft 608 kts 34°
2026-05-07 09:59 62.82501 -53.45881 33121 ft 608 kts 37°
2026-05-07 10:00 62.86061 -53.40860 32337 ft 610 kts 34°
2026-05-07 10:00 62.89613 -53.35977 31581 ft 610 kts 36°
2026-05-07 10:00 62.93179 -53.30903 30840 ft 612 kts 35°
2026-05-07 10:00 62.96778 -53.25891 30119 ft 613 kts 35°
2026-05-07 10:01 63.00372 -53.20807 29259 ft 614 kts 36°
2026-05-07 10:01 63.03964 -53.15716 28422 ft 615 kts 36°
2026-05-07 10:01 63.07570 -53.10623 27603 ft 616 kts 36°
2026-05-07 10:01 63.11175 -53.05474 26804 ft 617 kts 36°
2026-05-07 10:02 63.14792 -53.00323 26032 ft 618 kts 36°
2026-05-07 10:02 63.18401 -52.95157 25277 ft 619 kts 36°
2026-05-07 10:02 63.22016 -52.89962 24559 ft 620 kts 36°
2026-05-07 10:02 63.25647 -52.84740 23841 ft 622 kts 36°
2026-05-07 10:03 63.29279 -52.79490 23023 ft 622 kts 36°
2026-05-07 10:03 63.32874 -52.74283 22193 ft 624 kts 36°
2026-05-07 10:03 63.36515 -52.68992 21404 ft 625 kts 37°
2026-05-07 10:03 63.40165 -52.63670 20614 ft 626 kts 37°
2026-05-07 10:04 63.43813 -52.58337 19844 ft 627 kts 37°
2026-05-07 10:04 63.47476 -52.52964 19099 ft 629 kts 37°
2026-05-07 10:04 63.51139 -52.47573 18383 ft 630 kts 37°
2026-05-07 10:04 63.54804 -52.42165 17540 ft 631 kts 37°
2026-05-07 10:05 63.58477 -52.36727 16724 ft 632 kts 37°
2026-05-07 10:05 63.62098 -52.31350 15963 ft 633 kts 36°
2026-05-07 10:05 63.65776 -52.25869 15182 ft 634 kts 36°
2026-05-07 10:05 63.69457 -52.20369 14424 ft 635 kts 36°
2026-05-07 10:06 63.72911 -52.15214 13693 ft 553 kts 37°
2026-05-07 10:06 63.75961 -52.10610 12889 ft 510 kts 37°
2026-05-07 10:06 63.78822 -52.06294 12083 ft 476 kts 37°
2026-05-07 10:06 63.81508 -52.02244 11307 ft 453 kts 38°
2026-05-07 10:07 63.84085 -51.98332 10548 ft 439 kts 38°
2026-05-07 10:07 63.86589 -51.94532 9789 ft 429 kts 38°
2026-05-07 10:07 63.89067 -51.90868 8974 ft 424 kts 34°
2026-05-07 10:07 63.91707 -51.87669 8178 ft 438 kts 28°
2026-05-07 10:08 63.94596 -51.85381 7398 ft 439 kts 18°
2026-05-07 10:08 63.97531 -51.83574 6641 ft 433 kts 19°
2026-05-07 10:08 64.00390 -51.81549 5852 ft 428 kts 21°
2026-05-07 10:08 64.03208 -51.79430 5077 ft 424 kts 20°
2026-05-07 10:09 64.06010 -51.77515 4294 ft 419 kts 20°
2026-05-07 10:09 64.08778 -51.75416 3528 ft 415 kts 20°
2026-05-07 10:09 64.10585 -51.74093 3184 ft 408 kts 19°
2026-05-07 10:09 64.14089 -51.71604 2917 ft 369 kts 20°
2026-05-07 10:10 64.15641 -51.70457 2859 ft 339 kts 20°
2026-05-07 10:10 64.17821 -51.68943 2561 ft 321 kts 16°
2026-05-07 10:10 64.19869 -51.69488 997 ft 292 kts 289°
2026-05-07 10:10 64.19019 -51.72155 1035 ft 213 kts 198°
2026-05-07 10:11 64.17734 -51.73149 1390 ft 204 kts 197°
2026-05-07 10:11 64.15642 -51.74831 2244 ft 236 kts 190°
2026-05-07 10:11 64.14733 -51.74305 2030 ft 187 kts 133°
2026-05-07 10:11 64.14643 -51.71575 2027 ft 205 kts 60°
2026-05-07 10:12 64.15794 -51.70100 1237 ft 194 kts 15°
2026-05-07 10:12 64.16993 -51.69410 684 ft 159 kts 13°
2026-05-07 10:12 64.17982 -51.68720 296 ft 146 kts 13°
2026-05-07 10:12 64.19032 -51.67987 755 ft 200 kts 15°
2026-05-07 10:13 64.20669 -51.68750 2988 ft 342 kts 292°
2026-05-07 10:13 64.19456 -51.73984 545 ft 442 kts 197°
2026-05-07 10:13 64.16992 -51.76049 1753 ft 329 kts 200°
2026-05-07 10:13 64.15008 -51.77848 2245 ft 292 kts 199°
2026-05-07 10:14 64.13434 -51.77314 2273 ft 195 kts 126°
2026-05-07 10:14 64.13282 -51.74579 2041 ft 168 kts 72°
2026-05-07 10:14 64.13987 -51.72410 1618 ft 174 kts 42°
2026-05-07 10:14 64.14959 -51.71139 1159 ft 147 kts 25°
2026-05-07 10:15 64.15811 -51.70286 810 ft 135 kts 19°
2026-05-07 10:15 64.16795 -51.69558 582 ft 138 kts 14°
2026-05-07 10:15 64.17693 -51.68935 351 ft 135 kts 13°
2026-05-07 10:15 64.18579 -51.68316 354 ft 171 kts 18°
2026-05-07 10:16 64.20576 -51.66818 900 ft 431 kts
2026-05-07 10:16 64.22633 -51.70848 1189 ft 406 kts 261°
2026-05-07 10:16 64.20721 -51.73814 1335 ft 338 kts 197°
2026-05-07 10:16 64.18525 -51.75476 1588 ft 319 kts 197°
2026-05-07 10:17 64.16514 -51.77050 2105 ft 299 kts 197°
2026-05-07 10:17 64.14676 -51.77443 2192 ft 227 kts 146°
2026-05-07 10:17 64.14101 -51.74855 1911 ft 178 kts 91°
2026-05-07 10:17 64.14497 -51.72154 1604 ft 181 kts 57°
2026-05-07 10:18 64.15416 -51.70467 1123 ft 157 kts 20°
2026-05-07 10:18 64.16354 -51.69829 853 ft 145 kts 15°
2026-05-07 10:18 64.17297 -51.69127 635 ft 137 kts 15°
2026-05-07 10:18 64.18212 -51.68455 423 ft 143 kts 14°
2026-05-07 10:19 64.19149 -51.67765 283 ft 125 kts 15°
2026-05-07 10:19 64.20136 -51.67031 671 ft 229 kts 18°
2026-05-07 10:19 64.22180 -51.65439 1920 ft 338 kts 20°
2026-05-07 10:19 64.24111 -51.65840 2055 ft 260 kts 302°
2026-05-07 10:20 64.25010 -51.69098 2129 ft 229 kts 301°
2026-05-07 10:20 64.25826 -51.72025 2134 ft 196 kts 326°
2026-05-07 10:20 64.27547 -51.71799 1942 ft 364 kts 27°
2026-05-07 10:20 64.29364 -51.67493 1459 ft 368 kts 64°
2026-05-07 10:21 64.30175 -51.62446 1421 ft 304 kts 94°
2026-05-07 10:21 64.28931 -51.60485 1355 ft 203 kts 193°
2026-05-07 10:21 64.27688 -51.61425 1298 ft 184 kts 198°
2026-05-07 10:21 64.26426 -51.62423 1254 ft 192 kts 198°
2026-05-07 10:22 64.25202 -51.63337 1226 ft 194 kts 195°
2026-05-07 10:22 64.23929 -51.64210 1190 ft 180 kts 196°
2026-05-07 10:22 64.22836 -51.65000 1006 ft 156 kts 197°
2026-05-07 10:22 64.21788 -51.65778 771 ft 158 kts 199°
2026-05-07 10:23 64.20791 -51.66516 517 ft 142 kts 200°
2026-05-07 10:23 64.19925 -51.67168 329 ft 122 kts 201°
2026-05-07 10:23 64.18944 -51.67932 648 ft 198 kts 199°
2026-05-07 10:23 64.17302 -51.69154 1648 ft 311 kts 197°
2026-05-07 10:24 64.15444 -51.72978 2946 ft 456 kts 255°
2026-05-07 10:24 64.16542 -51.80290 5178 ft 560 kts 319°
2026-05-07 10:24 64.20413 -51.81281 3623 ft 600 kts 37°
2026-05-07 10:24 64.23781 -51.74946 1531 ft 626 kts 41°
2026-05-07 10:25 64.27089 -51.68428 1309 ft 625 kts 41°
2026-05-07 10:25 64.30465 -51.62253 1118 ft 608 kts
2026-05-07 10:25 64.34754 -51.61639 1101 ft 623 kts
2026-05-07 10:25 64.39085 -51.60708 1423 ft 625 kts
2026-05-07 10:26 64.43416 -51.59755 1796 ft 624 kts
2026-05-07 10:26 64.47738 -51.58794 2213 ft 625 kts
2026-05-07 10:26 64.52025 -51.57839 2647 ft 628 kts
2026-05-07 10:26 64.56389 -51.56858 3047 ft 627 kts
2026-05-07 10:27 64.60735 -51.55875 3438 ft 627 kts
2026-05-07 10:27 64.65076 -51.54892 3832 ft 626 kts
2026-05-07 10:27 64.69414 -51.53910 4307 ft 625 kts
2026-05-07 10:27 64.73745 -51.52930 4794 ft 625 kts
2026-05-07 10:28 64.78084 -51.51944 5266 ft 626 kts
2026-05-07 10:28 64.82421 -51.50956 5784 ft 627 kts
2026-05-07 10:28 64.86776 -51.49963 6349 ft 627 kts
2026-05-07 10:28 64.91072 -51.48995 6891 ft 627 kts
2026-05-07 10:29 64.95423 -51.48016 7441 ft 626 kts
2026-05-07 10:29 64.99768 -51.47027 7976 ft 625 kts
2026-05-07 10:29 65.04017 -51.45021 8521 ft 623 kts 14°
2026-05-07 10:30 65.12407 -51.39772 9055 ft 625 kts 17°
2026-05-07 10:30 65.16566 -51.36814 9033 ft 624 kts 18°
2026-05-07 10:30 65.20696 -51.33644 9062 ft 610 kts 20°
2026-05-07 10:30 65.24595 -51.30632 9033 ft 585 kts 13°
2026-05-07 10:31 65.28645 -51.29328 9049 ft 588 kts
2026-05-07 10:31 65.32730 -51.28544 9048 ft 588 kts
2026-05-07 10:31 65.36766 -51.27938 9036 ft 588 kts
2026-05-07 10:31 65.40853 -51.27385 9037 ft 588 kts
2026-05-07 10:32 65.44933 -51.26847 9050 ft 587 kts
2026-05-07 10:32 65.49007 -51.26304 9048 ft 587 kts
2026-05-07 10:32 65.53085 -51.25744 9040 ft 587 kts
2026-05-07 10:32 65.57161 -51.25162 9045 ft 587 kts
2026-05-07 10:33 65.61238 -51.24508 9031 ft 586 kts
2026-05-07 10:33 65.65357 -51.22903 9027 ft 617 kts 12°
2026-05-07 10:33 65.69610 -51.21142 9036 ft 621 kts
2026-05-07 10:33 65.73895 -51.19668 9049 ft 622 kts 10°
2026-05-07 10:34 65.78172 -51.17942 9051 ft 622 kts
2026-05-07 10:34 65.82450 -51.16399 9038 ft 622 kts
2026-05-07 10:34 65.86724 -51.14737 9073 ft 622 kts
2026-05-07 10:34 65.91006 -51.13114 9032 ft 623 kts
2026-05-07 10:35 65.95298 -51.11483 9048 ft 623 kts
2026-05-07 10:35 65.99532 -51.09841 9033 ft 623 kts
2026-05-07 10:35 66.03819 -51.08206 9040 ft 623 kts
2026-05-07 10:35 66.08106 -51.06542 9026 ft 624 kts
2026-05-07 10:36 66.12397 -51.04881 9027 ft 624 kts
2026-05-07 10:36 66.16689 -51.03213 9017 ft 624 kts
2026-05-07 10:36 66.20978 -51.01537 9021 ft 624 kts
2026-05-07 10:36 66.25263 -50.99861 9040 ft 624 kts
2026-05-07 10:37 66.29547 -50.98176 9021 ft 624 kts
2026-05-07 10:37 66.33835 -50.96486 9030 ft 624 kts
2026-05-07 10:37 66.38130 -50.94787 9019 ft 624 kts
2026-05-07 10:37 66.42410 -50.93086 9022 ft 623 kts
2026-05-07 10:38 66.46702 -50.91377 9014 ft 623 kts
2026-05-07 10:38 66.50983 -50.89665 9021 ft 623 kts
2026-05-07 10:38 66.55262 -50.87948 9022 ft 622 kts
2026-05-07 10:38 66.59537 -50.86227 9023 ft 622 kts
2026-05-07 10:39 66.63758 -50.84521 9013 ft 621 kts
2026-05-07 10:39 66.68022 -50.82792 9030 ft 621 kts
2026-05-07 10:39 66.72275 -50.81063 9041 ft 617 kts
2026-05-07 10:39 66.76568 -50.79315 9052 ft 630 kts 10°
2026-05-07 10:40 66.80899 -50.77530 9040 ft 630 kts 10°
2026-05-07 10:40 66.85225 -50.75787 9039 ft 630 kts
2026-05-07 10:40 66.89581 -50.74541 9059 ft 630 kts
2026-05-07 10:40 66.93955 -50.73539 8897 ft 632 kts
2026-05-07 10:41 66.98345 -50.72554 8690 ft 633 kts
2026-05-07 10:41 67.02665 -50.72789 7988 ft 606 kts 329°
2026-05-07 10:41 67.03507 -50.80384 6651 ft 415 kts 243°
2026-05-07 10:41 67.02174 -50.86248 6149 ft 359 kts 237°
2026-05-07 10:42 67.00976 -50.91491 5498 ft 325 kts 238°
2026-05-07 10:42 66.99377 -50.93560 4621 ft 252 kts 167°
2026-05-07 10:42 66.98105 -50.91047 2873 ft 231 kts 111°
2026-05-07 10:42 66.98074 -50.87233 1601 ft 197 kts 71°
2026-05-07 10:43 66.98523 -50.84433 1111 ft 147 kts 65°
2026-05-07 10:43 66.98942 -50.82091 893 ft 154 kts 64°
2026-05-07 10:43 66.99407 -50.79742 596 ft 155 kts 61°
2026-05-07 10:43 66.99924 -50.77281 330 ft 156 kts 61°
2026-05-07 10:44 67.00434 -50.74887 159 ft 145 kts 60°
2026-05-07 10:44 67.00857 -50.72864 135 ft 120 kts 61°
2026-05-07 10:44 67.01185 -50.71331 142 ft 75 kts 62°
2026-05-07 10:44 67.01346 -50.70568 151 ft 21 kts 60°
2026-05-07 10:45 67.01330 -50.70368 152 ft 11 kts 159°
2026-05-07 10:45 67.01249 -50.70313 151 ft 13 kts 165°
2026-05-07 10:45 67.01150 -50.70238 151 ft 16 kts 164°
2026-05-07 10:45 67.01143 -50.70030 152 ft 14 kts 60°
2026-05-07 10:46 67.01189 -50.69816 155 ft 14 kts 62°
2026-05-07 10:46 67.01200 -50.69764 155 ft 0 kts 61°